Location: Hilton Head Island
(32.2163°N, 80.7526°W)
Time: 13:11:18
(UTC-05:00)

Vanguard 2 - Pass Details

Date: 18 February 2026
Orbit: 553 x 2896 km, 32.9° (Epoch: 6 March)

Event Time Altitude Azimuth Distance (km) Brightness Sun altitude
Exits shadow 03:29:57 12° 115° (ESE) 2,526 10.5 -45.3°
Drops below altitude 10° 03:30:33 10° 110° (ESE) 2,629 10.7 -45.2°
Sets 03:33:19 0° 92° (E) 3,304 11.5 -44.6°
